Regional Weather Roundup
Issued by NWS

Home | Current Version | Previous Version | Graphics & Text | Print | Product List | Glossary On
Versions: 1 2 3 4 5 6 7 8 9 10 11 12 13 14 15 16 17 18 19 20 21 22 23 24 25 26 27 28 29 30 31 32 33 34 35 36 37 38 39 40 41 42 43 44 45 46 47 48 49 50
000
ASUS43 KMPX 311601
RWRMN
WEATHER ROUNDUP FOR MINNESOTA
NATIONAL WEATHER SERVICE TWIN CITIES/CHANHASSEN MN
1100 AM CDT THU JUL 31 2014


NOTE: "FAIR" INDICATES FEW OR NO CLOUDS BELOW 12,000 FEET WITH NO
SIGNIFICANT WEATHER AND/OR OBSTRUCTIONS TO VISIBILITY. N/A MEANS
CURRENT SKY AND/OR WEATHER CONDITIONS ARE NOT AVAILABLE.

MNZ060>063-068>070-311700-
   Twin Cities Metro

CITY           SKY/WX    TMP DP  RH WIND       PRES   REMARKS
TWIN CITIES    MOSUNNY   77  54  44 W8        30.04S
ST PAUL        SUNNY     76  56  49 W7        30.03F
CRYSTAL        MOSUNNY   77  55  46 W7        30.03S
BLAINE         PTSUNNY   75  57  53 NW6       30.04R
LAKEVILLE      SUNNY     73  61  64 W6        30.05S
EDEN PRAIRIE   SUNNY     76  61  59 SW5       30.04S
SOUTH ST PAUL  MOSUNNY   76  55  47 W6        30.03S
LAKE ELMO      FAIR      73  59  60 W6        30.05S
$$
MNZ001>005-007-008-013>017-022>024-027-028-311700-
   Northwest Minnesota

CITY           SKY/WX    TMP DP  RH WIND       PRES   REMARKS
BEMIDJI        SUNNY     74  59  58 W7        30.02S
HALLOCK        SUNNY     73  64  73 N5        30.02S
ROSEAU         SUNNY     73  61  64 CALM      30.02S
WARROAD        SUNNY     73  59  60 CALM      30.02S
THIEF RVR FALL SUNNY     73  63  68 NW9       30.03S
CROOKSTON      SUNNY     72  64  78 N6        30.04S
FOSSTON        SUNNY     73  61  64 CALM      30.04S
DETROIT LAKES  SUNNY     73  55  53 NW10      30.07R
MOORHEAD       SUNNY     73  64  73 W3        30.05S
PARK RAPIDS    SUNNY     76  56  49 W10       30.04R
$$
MNZ006-009>011-018-025>026-311700-
   North Central Minnesota

CITY           SKY/WX    TMP DP  RH WIND       PRES   REMARKS
BAUDETTE       SUNNY     75  57  53 NW7       30.02S
FLAG ISLAND    SUNNY     72  57  60 CALM      30.00F
INTL FALLS     SUNNY     74  56  53 N9        30.00S
WASKISH        SUNNY     72  64  78 CALM      30.01S
BIG FORK       SUNNY     73  61  64 VRB2      30.01S
LONGVILLE      SUNNY     73  61  64 NW6       30.02S
GRAND RAPIDS   SUNNY     72  61  68 NW8       30.02R
CRANE LAKE     SUNNY     68  59  73 CALM      30.00F
ORR            SUNNY     72  55  56 W3        29.98S
COOK           SUNNY     70  57  64 W3        30.00S
$$
MNZ012-019>021-037-311700-
   Northeast Minnesota

CITY           SKY/WX    TMP DP  RH WIND       PRES   REMARKS
DULUTH         SUNNY     75  56  51 NW3       30.00S
ELY            SUNNY     70  55  60 NW6       29.99S
HIBBING        SUNNY     75  55  49 NW7       30.00S
EVELETH        SUNNY     72  54  53 W5        30.01R
DULUTH HARBOR  SUNNY     73  61  64 CALM      29.98S
TWO HARBORS    SUNNY     73  54  49 W6        29.96S
SILVER BAY     SUNNY     73  61  64 CALM      29.96S
GRAND MARAIS     N/A     77  51  40 VRB6      29.93S
G MARAIS ARPRT SUNNY     68  46  45 NW6       29.99S
$$
MNZ029>031-032-039>041-046>048-054>057-064-311700-
   West Central Minnesota

CITY           SKY/WX    TMP DP  RH WIND       PRES   REMARKS
FERGUS FALLS   SUNNY     72  57  60 CALM      30.06R
WHEATON        SUNNY     73  59  60 W7        30.08S
MORRIS         SUNNY     75  63  64 NW6       30.06R
ALEXANDRIA     SUNNY     74  57  55 NW6       30.08R
ELBOW LAKE     FAIR      71  62  72 NW3       30.06S
WADENA         SUNNY     73  57  56 NW6       30.05S
GLENWOOD       SUNNY     73  61  64 SW5       30.07S
APPLETON       MOSUNNY   75  57  53 NW6       30.06S
BENSON         SUNNY     75  61  60 N5        30.06S
ORTONVILLE     MOSUNNY   75  57  53 NW5       30.07S HAZE
MADISON        SUNNY     79  57  47 N7        30.07R
WILLMAR        FAIR      73  57  56 W7        30.08S
$$
MNZ033>034-036-042>043-049>051-058-059-311700-
   Central Minnesota

CITY           SKY/WX    TMP DP  RH WIND       PRES   REMARKS
ST CLOUD       SUNNY     78  56  46 NW7       30.04S
SAUK CENTRE    FAIR      73  56  55 W5        30.06S
PAYNESVILLE    SUNNY     73  56  55 S3        30.06S
AITKIN         SUNNY     75  64  69 W3        30.01S
PINE RIVER     SUNNY     73  59  60 NW6       30.06S
BRAINERD       SUNNY     73  57  57 NW9       30.03S
STAPLES        SUNNY     75  57  53 NW5       30.05R
LONG PRAIRIE   FAIR      73  57  56 W5        30.06S
LITTLE FALLS   SUNNY     75  54  46 W7        30.05R
LITCHFIELD     SUNNY     73  63  68 CALM      30.06S
BUFFALO        MOSUNNY   74  56  52 W3        30.05F
MAPLE LAKE     SUNNY     75  59  55 NW5       30.06R
$$
MNZ037-044-045-052-053-311700-
   East Central Minnesota

CITY           SKY/WX    TMP DP  RH WIND       PRES   REMARKS
PRINCETON      MOSUNNY   77  61  57 W6        30.04R
MORA           MOSUNNY   73  59  60 NW5       30.03S
CAMBRIDGE      MOSUNNY   79  61  53 W8        30.01S
RUSH CITY      SUNNY     75  60  58 W6        30.02S
MOOSE LAKE     SUNNY     73  61  64 W6        29.99S
HINCKLEY       FAIR      73  64  73 W6        30.01S
CLOQUET        SUNNY     72  59  64 N5        30.00S
MCGREGOR       SUNNY     73  61  64 W9        30.02S
$$
MNZ071>073-080-081-089-090-097-098-311700-
   Southwest Minnesota

CITY           SKY/WX    TMP DP  RH WIND       PRES   REMARKS
MONTEVIDEO     SUNNY     79  61  53 N6        30.07S
GRANITE FALLS  SUNNY     75  58  54 W3        30.08S
CANBY          SUNNY     77  52  41 N3        30.08S
MARSHALL       SUNNY     77  50  38 NW3         N/A
REDWOOD FALLS  SUNNY     76  58  53 N7        30.07S
OLIVIA         SUNNY     73  59  60 NW6       30.06S
PIPESTONE      SUNNY     73  57  56 CALM      30.09S
WINDOM         SUNNY     75  55  50 W3        30.09S
WORTHINGTON    SUNNY     73  55  53 CALM      30.11S
JACKSON        MOSUNNY   73  57  56 CALM      30.10S
TRACY          MOSUNNY   77  53  43 CALM      30.09R
SLAYTON        MOSUNNY   74  54  48 CALM      30.11S
$$
MNZ065>067-074>077-082>085-091>093-311700-
   South Central Minnesota

CITY           SKY/WX    TMP DP  RH WIND       PRES   REMARKS
MANKATO        SUNNY     73  57  56 W6        30.07F
NEW ULM        SUNNY     73  59  60 NW6       30.07S
ST JAMES       SUNNY     81  50  34 CALM      30.08S
FAIRMONT       SUNNY     77  52  41 NW6       30.08S
GLENCOE        SUNNY     76  57  52 SW6       30.05S
FARIBAULT      SUNNY     79  54  41 W7        30.07S
OWATONNA       SUNNY     75  57  53 W8        30.07S
WASECA         SUNNY     72  55  56 CALM      30.09S
ALBERT LEA     SUNNY     75  55  50 W5        30.08S
$$
MNZ078>079-086>088-094>096-311700-
   Southeast Minnesota

CITY           SKY/WX    TMP DP  RH WIND       PRES   REMARKS
ROCHESTER      SUNNY     75  58  55 W6        30.08S
RED WING       SUNNY     77  61  57 W3        30.03S
STANTON        SUNNY     75  59  56 SW5       30.04S
DODGE CENTER   SUNNY     73  57  56 W9        30.08R
WINONA         SUNNY     73  61  64 CALM      30.04S
AUSTIN         SUNNY     73  57  56 W7        30.08S
PRESTON        SUNNY     73  62  70 NW8       30.08S
$$
ABBREVIATIONS USED IN REMARKS
   TC - TEMPERATURES IN CELSIUS
  WCI - WIND CHILL INDEX
   HX - HEAT INDEX
  VSB - VISIBILITY
$$


USA.gov is the U.S. government's official web portal to all federal, state and local government web resources and services.